803  
ASGM40 PGUM 150210  
RWRGUM  
WEATHER ROUNDUP FOR THE MARIANAS  
NATIONAL WEATHER SERVICE TIYAN GU  
1200 PM CHST THU APR 15 2021  
 
GUZ001>004-150300-  
MARIANA ISLANDS-  
 
CITY SKY/WX TMP DP RH WIND PRES REMARKS
 
GUAM AIRPORT PTSUNNY 86 73 66 SE14G21 29.82F HX 93  
ANDERSEN AFB MOSUNNY 86 75 70 SE14 29.83F HX 95  
ROTA AIRPORT PTSUNNY 86 75 70 E17 29.80F HX 95  
TINIAN AP MOSUNNY 90 75 62 E12 29.80F HX 100  
SAIPAN AP MOSUNNY 90 75 62 E18 29.81F HX 100  
 

 
 
 
 
CLICK HERE TO GO TO PREVIOUS BULLETINS.

The Nexlab GU Page Main Text Page